Location: *
(41.7492°S, 135.4150°W)
Time: 21:50:04
(UTC+00:00)

METEOR M2 - Pass Details

Date: 07 July 2022
Orbit: 818 x 827 km, 98.4° (Epoch: 17 August)

Event Time Altitude Azimuth Distance (km) Brightness Sun altitude
Exits shadow 02:30:19 10° 109° (ESE) 2,429 ? -8.5°
Maximum altitude 02:31:49 11° 92° (E) 2,347 ? -8.7°
Drops below altitude 10° 02:33:26 10° 75° (ENE) 2,434 ? -9.0°
Sets 02:37:45 0° 41° (NE) 3,355 ? -9.8°
